sat.trackr.live / text

‹ back to catalog

STARLINK-35097

NORAD 65393 · 2025-191Q

PAYLOAD ACTIVE UNKNOWN

§ Identity

Operator
Country
US
Launch date
2025-08-30
Launch site
AFWTR
Launch vehicle
Mass (kg)
RCS (m²)

Purposes: comms

External: N2YO · Heavens-Above · Gunter

§ Orbital elements

Epoch: 2026-09-20T21:40:54.014016Z

Period
93.91 min
Inclination
97.2840°
Eccentricity
0.0001424
Mean motion
15.33441024 rev/d
Perigee alt
464.6 km
Apogee alt
466.5 km
Semi-major
6,843.7 km
B*
5.0950e-4
RAAN
129.9692°
Arg perigee
77.2425°
Mean anomaly
282.8977°
Rev number
5,825

§ Raw data

STARLINK-350971 65393U 25191Q   26263.90340294  .00016407  00000+0  50950-3 0  99932 65393  97.2840 129.9692 0001424  77.2425 282.8977 15.33441024 58254

JSON: /api/v1/satellites/65393 · /tle

For live sub-satellite position, see the globe view (requires WebGL).

§ Visibility from observer

Set your observer location to see the next 7 days of passes ≥ 10°. The values pass through the URL so the page stays shareable.

No JS? Fill the form by hand. The geolocation button needs JavaScript.